Madison, WI

5:52 PM CST on December 02, 2016 (GMT -0600)
Dane County Regional-Truax

Weather History for KMSN - January, 2014

Change the Weather History Date:

Monday, January 20, 2014

  Actual Average Record
Temperature  
Mean Temperature 21 °F 18 °F  
Max Temperature 35 °F 26 °F 53 °F (1906)
Min Temperature 6 °F 11 °F -27 °F (1994)
Degree Days  
Heating Degree Days 44 47  
Month to date heating degree days 1024 929  
Since 1 July heating degree days 4009 3808  
Cooling Degree Days 0 0  
Month to date cooling degree days 0 0  
Year to date cooling degree days 0 0  
Moisture  
Dew Point 13 °F    
Average Humidity 76    
Maximum Humidity 88    
Minimum Humidity 63    
Precipitation  
Precipitation T in 0.04 in 1.11 in (1898)
Month to date precipitation 0.36 0.80  
Year to date precipitation 0.36 0.80  
Snow  
Snow 0.80 in 0.40 in 9.40 in (1898)
Month to date snowfall 6.4 8.3  
Since 1 July snowfall 32.0 25.9  
Snow Depth 6.00 in    
Sea Level Pressure  
Sea Level Pressure 30.00 in    
Wind  
Wind Speed 11 mph (NNE)    
Max Wind Speed 25 mph    
Max Gust Speed 30 mph    
Visibility 7 miles    
Events Snow    
T = Trace of Precipitation, MM = Missing Value Source: NWS Daily Summary

Daily Weather History Graph

Daily Weather History Graph

Search for Another Location

Airport or City:

Trip Planner

Search our weather history database for the weather conditions in past years. The results will help you decide how hot, cold, wet, or windy it might be!

Date:

Astronomy

Jan. 20, 2014 Rise Set
Actual Time 7:23 AM CST 4:54 PM CST
Civil Twilight 6:52 AM CST 5:25 PM CST
Nautical Twilight 6:17 AM CST 6:00 PM CST
Astronomical Twilight 5:43 AM CST 6:33 PM CST
Moon 9:37 PM CST (1/20) 9:15 AM CST (1/20)
Length of Visible Light 10h 33m
Length of Day
9h 30m
Waning Gibbous, 82% of the Moon is Illuminated
Jan 20
Waning Gibbous
Jan 23
Last Quarter
Jan 30
New
Feb 6
First Quarter
Feb 14
Full

Hourly Weather History & Observations

Time (CST) Temp. Windchill Dew Point Humidity Pressure Visibility Wind Dir Wind Speed Gust Speed Precip Events Conditions
12:11 AM 35.1 °F 26.4 °F 27.0 °F 72% - 10.0 mi NNW 12.7 mph - N/A   Overcast
12:53 AM 33.1 °F 26.9 °F 26.1 °F 75% - 10.0 mi NNW 6.9 mph - N/A   Overcast
1:09 AM 32.0 °F 25.6 °F 25.0 °F 75% - 10.0 mi NNW 6.9 mph - N/A   Overcast
1:53 AM 30.9 °F 23.5 °F 24.1 °F 76% - 10.0 mi NNW 8.1 mph - N/A   Mostly Cloudy
2:53 AM 30.9 °F 24.3 °F 24.1 °F 76% - 10.0 mi NNW 6.9 mph - N/A   Overcast
3:53 AM 32.0 °F 27.5 °F 24.1 °F 73% - 10.0 mi NW 4.6 mph - N/A   Overcast
4:31 AM 30.9 °F 27.5 °F 21.9 °F 69% - 10.0 mi WNW 3.5 mph - N/A   Overcast
4:53 AM 30.9 °F 26.2 °F 21.0 °F 67% - 10.0 mi WNW 4.6 mph - N/A   Overcast
5:38 AM 24.1 °F 13.1 °F 19.9 °F 84% - 10.0 mi ENE 11.5 mph - N/A   Overcast
5:45 AM 24.1 °F 14.4 °F 19.9 °F 84% - 10.0 mi NE 9.2 mph - N/A   Overcast
5:53 AM 24.1 °F 15.2 °F 19.9 °F 84% 29.75 in 10.0 mi East 8.1 mph - N/A   Overcast
6:53 AM 23.0 °F 13.9 °F 19.0 °F 85% 29.79 in 10.0 mi ENE 8.1 mph - N/A   Overcast
7:53 AM 21.9 °F 14.5 °F 18.0 °F 85% 29.82 in 10.0 mi ENE 5.8 mph - N/A   Overcast
8:48 AM 21.2 °F 12.6 °F 17.6 °F 86% 29.80 in 10.0 mi ESE 6.9 mph - 0.00 in   Mostly Cloudy
8:53 AM 21.0 °F 13.4 °F 17.1 °F 85% 29.83 in 10.0 mi ESE 5.8 mph - 0.00 in   Mostly Cloudy
9:23 AM 23.0 °F 14.7 °F 17.1 °F 78% 29.83 in 10.0 mi NNE 6.9 mph - 0.00 in Snow Light Snow
9:53 AM 21.0 °F 7.6 °F 17.1 °F 85% 29.87 in 9.0 mi NE 15.0 mph - 0.00 in Snow Light Snow
10:16 AM 21.0 °F 9.3 °F 16.0 °F 81% 29.88 in 8.0 mi NE 11.5 mph - 0.00 in Snow Light Snow
10:53 AM 19.9 °F 9.3 °F 15.1 °F 81% 29.93 in 9.0 mi NNE 9.2 mph - 0.00 in Snow Light Snow
11:53 AM 19.0 °F 6.8 °F 15.1 °F 85% 29.93 in 9.0 mi NE 11.5 mph - 0.00 in Snow Light Snow
12:53 PM 19.0 °F 7.5 °F 14.0 °F 81% 29.94 in 10.0 mi NNE 10.4 mph - 0.00 in   Overcast
1:53 PM 18.0 °F 4.8 °F 10.9 °F 74% 29.96 in 8.0 mi NE 12.7 mph - 0.00 in Snow Light Snow
2:03 PM 17.1 °F 3.0 °F 10.0 °F 74% 29.92 in 9.0 mi NNE 13.8 mph - 0.00 in Snow Light Snow
2:53 PM 17.1 °F 3.6 °F 9.0 °F 71% 29.99 in 9.0 mi NE 12.7 mph - 0.00 in Snow Light Snow
3:38 PM 15.1 °F 1.1 °F 9.0 °F 77% 29.97 in 2.5 mi NE 12.7 mph - 0.00 in Snow Light Snow
3:53 PM 15.1 °F 0.5 °F 9.0 °F 77% 30.02 in 1.8 mi NE 13.8 mph - 0.00 in Snow Light Snow
4:41 PM 14.0 °F -1.4 °F 9.0 °F 80% 30.01 in 1.5 mi NNE 15.0 mph - 0.00 in Snow Light Snow
4:53 PM 14.0 °F -2.5 °F 9.0 °F 80% 30.06 in 1.5 mi NNE 17.3 mph 20.7 mph 0.00 in Snow Light Snow
5:09 PM 12.9 °F -3.9 °F 7.0 °F 77% 30.03 in 2.0 mi NNE 17.3 mph - 0.00 in Snow Light Snow
5:53 PM 12.9 °F -1.6 °F 7.0 °F 77% 30.10 in 2.0 mi NNE 12.7 mph - 0.00 in Snow Light Snow
6:19 PM 12.9 °F -1.6 °F 7.0 °F 77% 30.06 in 4.0 mi NNE 12.7 mph - 0.00 in Snow Light Snow
6:53 PM 12.9 °F -0.2 °F 6.1 °F 74% 30.13 in 6.0 mi NNE 10.4 mph - 0.00 in Snow Light Snow
7:53 PM 12.0 °F -2.7 °F 7.0 °F 80% 30.14 in 4.0 mi NNE 12.7 mph - 0.00 in Snow Light Snow
8:20 PM 12.0 °F -6.0 °F 6.1 °F 77% 30.11 in 1.8 mi NNE 19.6 mph - 0.00 in Snow Light Snow
8:32 PM 10.9 °F -7.5 °F 3.9 °F 73% 30.11 in 3.0 mi NNE 19.6 mph 26.5 mph 0.00 in Snow Light Snow
8:53 PM 10.0 °F -9.1 °F 1.9 °F 70% 30.18 in 3.0 mi North 20.7 mph 27.6 mph 0.00 in Snow Light Snow
9:53 PM 9.0 °F -9.5 °F -2.0 °F 61% 30.21 in 7.0 mi North 18.4 mph - 0.00 in Snow Light Snow
10:53 PM 7.0 °F -13.1 °F -4.0 °F 61% 30.25 in 7.0 mi North 20.7 mph - 0.00 in   Mostly Cloudy
11:53 PM 6.1 °F -11.6 °F -5.1 °F 60% 30.26 in 10.0 mi North 15.0 mph - N/A   Mostly Cloudy